NOAA 16 DEB, 41301

Orbit data source: Space-Track

NOAA 16 DEB, 41301 is space debris in SSO originally from a launch on Thu, 21 Sep 2000 UTC launched from the Air Force Western Test Range (AFWTR). Debris objects in space refer to the collection of defunct objects orbiting the Earth. Examples of debris include non-operational satellites, rocket bodies, and fragments generated from explosions, collisions, or faulty payload assembly.

Loading next visibility...
Identifier
41301, 2000-055HD
Orbit
SSO
Country
Flag of USUS
Related business
Manufacturer
Unknown
Mission
Spacecraft
Bus & Motor
Unknown
Mass
Unknown
Launch date (UTC)
2000-09-21 (25 years ago)
Launch vehicle
Unknown
Launch site
Air Force Western Test Range (AFWTR)
Object type
Payload
Rocket body
Debris
Shape & HBR
Unknown shape, 0.1 m
Radar Cross Section
Small (<0.1 m²)

Expand to show TLE details & history
Last TLE update: 19 hours ago

TLE from 19 hours ago
0 NOAA 16 DEB
1 41301U 00055HD  25291.86361354  .00007948  00000-0  34843-2 0  9996
2 41301  98.7170 329.7466 0022783 159.5441 200.6655 14.23763969505342
Epoch: 2025-10-18T20:43Z
TLE epoch observation values (Epoch: 2025-10-18T20:43:36.209Z)
Latitude
-0.00004°
Longitude
-8.74279°
Altitude
830.907 km
Speed
7.43 km/s
True Right ascension
21h 58m 59s
True Declination
0° 00' 00"
Sunlit
Object was in full shadow at epoch
Visualization orbit readout
Latitude
Unknown
Longitude
Unknown
Altitude
Unknown
Speed
Unknown
Apparent Right ascension
Unknown
Apparent Declination
Unknown
Sunlit
N/A
Visualization observer readout
Local Sidereal Time
10:32:26
Azimuth
Unknown
Elevation
Unknown
Doppler factor
Unknown
Orbital elements
Apogee altitude
826.182 km
Perigee altitude
793.429 km
Semi-major axis
7,187.942 km
Eccentricity
0.00228
Inclination
98.717°
RAAN
329.7466°
Arg. of periapsis
159.5441°
True anomaly
200.57361°
Mean anomaly
200.6655°
Eccentric anomaly
200.61953°
Mean motion
3.56153 °/min
Orbital period
101.08 mins
BSTAR
0.0034843
Loading maneuver chart data...
Computing Atmospheric mass density...

Documentation

Showing up to 5 results
|